Location: Unspecified
(32.6095°N, 0.0000°E)
Time: 13:45:36
(UTC+00:00)

N. Korean satellite - Visible Passes

Search period start: 23 October 2019 00:00
Search period end: 02 November 2019 00:00
Orbit: 455 x 508 km, 97.2° (Epoch: 22 October)

Date Brightness Start Highest point End Pass type
(mag) Time Alt. Az. Time Alt. Az. Time Alt. Az.
23 Oct 9.5 05:10:32 10° NE 05:13:28 23° E 05:16:26 10° SSE visible
24 Oct 10.6 04:47:24 10° E 04:48:03 10° E 04:48:41 10° ESE visible
25 Oct 9.7 17:57:52 10° SW 18:00:24 19° W 18:02:57 10° NW visible
26 Oct 8.3 05:27:29 10° NNE 05:30:58 40° E 05:34:28 10° S visible
27 Oct 9.8 05:02:59 10° NE 05:05:35 18° E 05:08:12 10° SE visible
28 Oct 10.4 18:16:53 10° WSW 18:17:54 11° W 18:18:55 10° WNW visible
29 Oct 6.9 05:44:43 10° NNE 05:48:25 75° E 05:52:07 10° S visible
29 Oct 9.2 17:49:34 10° SSW 17:52:26 25° W 17:55:21 10° NW visible
30 Oct 8.8 05:19:45 10° NNE 05:23:05 31° E 05:26:24 10° SSE visible
31 Oct 10.1 04:55:33 10° ENE 04:57:39 15° E 04:59:46 10° SE visible
01 Nov 10.0 18:07:57 10° SW 18:09:54 14° W 18:11:53 10° WNW visible
